Newhall, CA Past Weather

Last 30 Days

High: 56ºf @12:57 AM    Low: 52ºf @4:57 AM     Approx. Precipitation / Rain Total: in.
Time (PDT)Temp. (ºf)Humidity (%)Dew Point (ºf)Barometer (inHG)Wind Speed (mph)Wind DirectionWind Gust (mph)1hr. Precip / Rain Total (in.)Snow Depth
4:57 AM527644.67-1.74nne5.21--
3:57 AM537645.64-1.74e4.34--
2:57 AM557246.14-3.48e6.08--
1:57 AM557346.5---6.08--
12:57 AM567447.83-4.34ese5.21--
High: 84ºf @2:57 PM    Low: 46ºf @4:57 AM     Approx. Precipitation / Rain Total: in.
Time (PDT)Temp. (ºf)Humidity (%)Dew Point (ºf)Barometer (inHG)Wind Speed (mph)Wind DirectionWind Gust (mph)1hr. Precip / Rain Total (in.)Snow Depth
11:57 PM597049.23-2.61ne7.82--
10:57 PM606648.61-0.87e6.08--
9:57 PM635847.99-3.48ese6.95--
8:57 PM645748.46-2.61nnw7.82--
7:57 PM675148.27-5.21wsw13.03--
6:57 PM714548.58-6.08w14.77--
5:57 PM744249.44-8.69wnw16.51--
4:57 PM774151.48-8.69w19.12--
3:57 PM812743.84-9.56wsw19.12--
2:57 PM842241.04-2.61sw11.3--
1:57 PM812238.55-4.34n14.77--
12:57 PM812137.37-3.48ne10.43--
11:57 AM763445.59-2.61wsw6.95--
10:57 AM694446.17-4.34ssw6.08--
9:57 AM625445.16-3.48w6.08--
8:57 AM596246-0.87ene5.21--
7:57 AM536240.33-0.87nne4.34--
6:57 AM487440.11-1.74nnw4.34--
5:57 AM477940.83-2.61n6.95--
4:57 AM468341.13-5.21ese6.95--
3:57 AM478041.16-0.87nne6.08--
2:57 AM487741.14-3.48nne8.69--
1:57 AM487741.14-6.95e8.69--
12:57 AM507241.33-3.48nne5.21--
High: 69ºf @3:57 PM    Low: 41ºf @4:57 AM     Approx. Precipitation / Rain Total: in.
Time (PDT)Temp. (ºf)Humidity (%)Dew Point (ºf)Barometer (inHG)Wind Speed (mph)Wind DirectionWind Gust (mph)1hr. Precip / Rain Total (in.)Snow Depth
11:57 PM507341.69-2.61ene6.08--
10:57 PM517141.93-6.08ne6.95--
9:57 PM536842.72-2.61n11.3--
8:57 PM575139.05-8.69nnw14.77--
7:57 PM594939.87-9.56nnw17.38--
6:57 PM624138.03-12.17nw19.99--
5:57 PM653838.77-14.77nnw20.86--
4:57 PM684646.44-7.82wnw13.9--
3:57 PM694546.76-6.95wnw13.03--
2:57 PM694043.66-4.34ssw10.43--
1:57 PM674243.14-2.61sse10.43--
12:57 PM674746.1-2.61sw6.95--
11:57 AM624741.54-2.61nw6.95--
10:57 AM595241.4-1.74sw7.82--
9:57 AM586345.47-0.87n6.08--
8:57 AM536943.1-2.61e7.82--
7:57 AM477740.17-3.48se9.56--
6:57 AM487239.41-4.34nnw7.82--
5:57 AM428537.82-4.34ese19.12--
4:57 AM419339.13-6.95ese9.56--
3:57 AM429340.12-3.48ne6.95--
2:57 AM429540.67-3.48ne8.69--
1:57 AM449843.47-0.87ne6.95--
12:57 AM459744.2-3.48ne5.21--
High: 53ºf @4:57 PM    Low: 38ºf @1:57 AM     Approx. Precipitation / Rain Total: in.
Time (PDT)Temp. (ºf)Humidity (%)Dew Point (ºf)Barometer (inHG)Wind Speed (mph)Wind DirectionWind Gust (mph)1hr. Precip / Rain Total (in.)Snow Depth
11:57 PM459844.47-3.48nne10.43--
10:57 PM469344.09-2.61ne6.08--
9:57 PM479445.36-3.48nne6.95--
8:57 PM489145.5-0.87n5.21--
7:57 PM499146.49-4.34wsw10.43--
6:57 PM518045.05-6.08w11.3--
5:57 PM527945.69-6.08sw14.77--
4:57 PM539250.74-6.95sw13.03--
3:57 PM509448.34-7.82sse16.51--
2:57 PM518646.96-9.56s17.38--
1:57 PM509047.18-12.17s18.25--
12:57 PM499146.49-10.43sse17.38--
11:57 AM479345.08-9.56s20.86--
10:57 AM508846.59-8.69s16.51--
9:57 AM489245.79-10.43sse16.51--
8:57 AM459944.74-6.95s11.3--
7:57 AM4410044-3.48s8.69--
6:57 AM4310043-3.48sse7.82--
5:57 AM4110041-2.61ssw5.21--
4:57 AM4110041---2.61--
3:57 AM4010040-2.61nne3.48--
2:57 AM4010040-1.74ene3.48--
1:57 AM389937.74-1.74nne5.21--
12:57 AM409638.95-4.34se5.21--
High: 58ºf @10:57 AM    Low: 41ºf @11:57 PM     Approx. Precipitation / Rain Total: in.
Time (PDT)Temp. (ºf)Humidity (%)Dew Point (ºf)Barometer (inHG)Wind Speed (mph)Wind DirectionWind Gust (mph)1hr. Precip / Rain Total (in.)Snow Depth
11:57 PM419639.95-2.61nne4.34--
10:57 PM419840.48-4.34nne4.34--
9:57 PM439641.94-1.74wsw6.08--
8:57 PM439341.12-5.21ese17.38--
7:57 PM429741.21-11.3nne16.51--
6:57 PM449342.11-9.56wsw20.86--
5:57 PM459242.82-13.9sw34.76--
4:57 PM509648.9-11.3s25.2--
3:57 PM509348.06-16.51sse28.68--
2:57 PM557647.57-14.77sse29.55--
1:57 PM556643.85-15.64sse28.68--
12:57 PM556141.8-15.64sse26.07--
11:57 AM565740.98-16.51sse26.94--
10:57 AM585742.85-10.43sse19.99--
9:57 AM556342.64-11.3s20.86--
8:57 AM536943.1-10.43sse19.99--
7:57 AM527544.32-9.56s16.51--
6:57 AM517744.05-7.82s13.9--
5:57 AM517643.7-6.08s9.56--
4:57 AM517643.7-6.08ssw15.64--
3:57 AM517543.36-9.56s18.25--
2:57 AM517844.38-8.69s14.77--
1:57 AM517744.05-10.43s17.38--
12:57 AM527845.36-11.3s17.38--
High: 59ºf @1:57 PM    Low: 48ºf @5:57 AM     Approx. Precipitation / Rain Total: in.
Time (PDT)Temp. (ºf)Humidity (%)Dew Point (ºf)Barometer (inHG)Wind Speed (mph)Wind DirectionWind Gust (mph)1hr. Precip / Rain Total (in.)Snow Depth
11:57 PM527945.69-10.43s16.51--
10:57 PM528347-6.95ssw13.9--
9:57 PM528447.32-9.56s16.51--
8:57 PM528347-6.95s11.3--
7:57 PM538347.98-7.82s13.03--
6:57 PM548148.3-6.95s15.64--
5:57 PM548047.97-9.56s14.77--
4:57 PM548348.95-9.56ssw16.51--
3:57 PM557848.27-13.03s23.46--
2:57 PM597149.61-14.77s23.46--
1:57 PM597350.36-18.25s26.94--
12:57 PM597249.98-18.25ssw27.81--
11:57 AM597551.08-13.03ssw21.72--
10:57 AM567949.58-15.64ssw20.86--
9:57 AM568150.25-10.43ssw18.25--
8:57 AM548750.22-9.56ssw13.9--
7:57 AM536943.1-1.74sse4.34--
6:57 AM497641.77-3.48se3.48--
5:57 AM488042.13-1.74ene4.34--
4:57 AM517543.36-1.74ese3.48--
3:57 AM518045.05-1.74ene2.61--
2:57 AM546944.06-1.74w3.48--
1:57 AM566042.31---3.48--
12:57 AM576043.25-2.61se4.34--
High: 86ºf @3:57 PM    Low: 54ºf @5:57 AM     Approx. Precipitation / Rain Total: in.
Time (PDT)Temp. (ºf)Humidity (%)Dew Point (ºf)Barometer (inHG)Wind Speed (mph)Wind DirectionWind Gust (mph)1hr. Precip / Rain Total (in.)Snow Depth
11:57 PM585943.75-5.21ese7.82--
10:57 PM635345.59-3.48ene6.08--
9:57 PM644642.8-2.61ne6.08--
8:57 PM664644.62-2.61nnw3.48--
7:57 PM713944.78-2.61nw8.69--
3:57 PM861736.09-8.69s17.38--
2:57 PM851633.76-11.3sse18.25--
1:57 PM851633.76-10.43ssw14.77--
12:57 PM852444.14-5.21ssw9.56--
10:57 AM763647.1-2.61sw5.21--
8:57 AM664443.46---3.48--
7:57 AM615243.25-0.87e3.48--
6:57 AM555639.59-2.61ne6.08--
5:57 AM545739.11-1.74e6.08--
4:57 AM565339.11-1.74nne5.21--
3:57 AM545839.56-3.48ese6.08--
2:57 AM565941.88-0.87sw1.74--
1:57 AM585642.39---6.08--
12:57 AM594738.8-4.34ne7.82--
High: 84ºf @4:57 PM    Low: 52ºf @5:57 AM     Approx. Precipitation / Rain Total: in.
Time (PDT)Temp. (ºf)Humidity (%)Dew Point (ºf)Barometer (inHG)Wind Speed (mph)Wind DirectionWind Gust (mph)1hr. Precip / Rain Total (in.)Snow Depth
11:57 PM605945.63---5.21--
10:57 PM625344.67-1.74nne6.08--
9:57 PM645346.52-5.21se6.95--
8:57 PM674746.1---6.95--
7:57 PM704245.84-6.95w10.43--
6:57 PM753646.22-6.08w13.9--
5:57 PM793145.76-8.69w13.9--
4:57 PM842746.39-6.08wsw15.64--
3:57 PM831530.57-9.56s16.51--
2:57 PM831530.57-9.56sse14.77--
1:57 PM821935.65-8.69s14.77--
12:57 PM812238.55-7.82ssw13.03--
11:57 AM792540.15-3.48w6.95--
10:57 AM733140.57-3.48sw5.21--
9:57 AM673336.94-2.61sw5.21--
8:57 AM633736.32-2.61se4.34--
7:57 AM594336.53-2.61e4.34--
6:57 AM534431.68-2.61nne5.21--
5:57 AM524631.87-3.48e3.48--
4:57 AM524732.4-2.61ese4.34--
3:57 AM554131.74-0.87nne9.56--
2:57 AM525033.94-6.95ese9.56--
1:57 AM564132.64-6.08nne8.69--
12:57 AM544834.76-3.48ne6.95--
High: 80ºf @5:57 PM    Low: 45ºf @6:57 AM     Approx. Precipitation / Rain Total: in.
Time (PDT)Temp. (ºf)Humidity (%)Dew Point (ºf)Barometer (inHG)Wind Speed (mph)Wind DirectionWind Gust (mph)1hr. Precip / Rain Total (in.)Snow Depth
11:57 PM564534.96-2.61ne5.21--
10:57 PM584536.78-5.21e6.95--
9:57 PM623534.03-4.34e6.08--
8:57 PM653032.81-3.48nw9.56--
7:57 PM672630.98-7.82w16.51--
6:57 PM712230.24-12.17w18.25--
5:57 PM801629.77-2.61wsw9.56--
4:57 PM791527.4-6.08n14.77--
3:57 PM781424.94-9.56n19.12--
2:57 PM781526.6-7.82n16.51--
1:57 PM761525.01-9.56nne19.12--
12:57 PM741827.8-10.43n20.86--
11:57 AM721927.48-9.56nne23.46--
10:57 AM681924.21-13.03nne26.07--
9:57 AM662226.07-13.9nne24.33--
8:57 AM613533.15-6.95n13.03--
7:57 AM553729.21-6.08n12.17--
6:57 AM455730.69-4.34n6.95--
5:57 AM475230.3-2.61n6.08--
4:57 AM465832.06-2.61se9.56--
3:57 AM475933.42-4.34ese6.08--
2:57 AM495332.62-4.34ne6.95--
1:57 AM515234-4.34e7.82--
12:57 AM515334.48-5.21ne6.95--
High: 72ºf @3:57 PM    Low: 44ºf @4:57 AM     Approx. Precipitation / Rain Total: in.
Time (PDT)Temp. (ºf)Humidity (%)Dew Point (ºf)Barometer (inHG)Wind Speed (mph)Wind DirectionWind Gust (mph)1hr. Precip / Rain Total (in.)Snow Depth
11:57 PM525033.94-3.48ese5.21--
10:57 PM534733.32-1.74-6.95--
9:57 PM564233.24-3.48nw10.43--
8:57 PM564333.82-3.48n12.17--
7:57 PM593833.43-11.3nnw25.2--
6:57 PM643132.76-15.64n23.46--
5:57 PM672630.98-17.38nnw24.33--
4:57 PM712027.91-10.43nnw20.86--
3:57 PM721420.2-14.77n26.94--
2:57 PM711419.41-16.51n28.68--
1:57 PM691722.38-14.77n26.07--
12:57 PM672226.9-14.77nne23.46--
11:57 AM643031.94-6.08ne18.25--
10:57 AM622929.38-11.3nne18.25--
9:57 AM584436.21-3.48wsw6.08--
8:57 AM545236.78-0.87wsw5.21--
7:57 AM495232.15-4.34ne7.82--
6:57 AM485130.74-5.21ne7.82--
5:57 AM455529.82-4.34nne9.56--
4:57 AM445729.76-6.08nne6.95--
3:57 AM455429.37-3.48ne6.08--
2:57 AM446332.23-4.34ne8.69--
1:57 AM455630.26-6.08nne7.82--
12:57 AM456333.17-3.48e6.95--
High: 65ºf @2:57 PM    Low: 38ºf @5:57 AM     Approx. Precipitation / Rain Total: in.
Time (PDT)Temp. (ºf)Humidity (%)Dew Point (ºf)Barometer (inHG)Wind Speed (mph)Wind DirectionWind Gust (mph)1hr. Precip / Rain Total (in.)Snow Depth
11:57 PM485130.74-6.08nne11.3--
10:57 PM504529.5-5.21n15.64--
9:57 PM514429.86-9.56n19.99--
8:57 PM524129.04-13.03nnw21.72--
7:57 PM534431.68-12.17nnw22.59--
6:57 PM554534.05-13.9nw20.86--
5:57 PM595341.89-7.82w14.77--
4:57 PM613835.21-7.82s17.38--
3:57 PM613533.15-9.56s19.12--
2:57 PM653234.42-10.43sse17.38--
1:57 PM643233.55-6.95s14.77--
12:57 PM633635.62-5.21w10.43--
11:57 AM613935.86-2.61w8.69--
10:57 AM604538.6-0.87w5.21--
9:57 AM565339.11-1.74se6.08--
8:57 AM467137.13-4.34e6.95--
7:57 AM418536.84-3.48e5.21--
6:57 AM408335.26-1.74ne5.21--
5:57 AM388834.77-3.48ene5.21--
4:57 AM388634.19-3.48e4.34--
3:57 AM398936.04-3.48e6.08--
2:57 AM408636.16-3.48ese6.08--
1:57 AM428036.29-4.34nne6.95--
12:57 AM438137.58-4.34ese6.08--
High: 64ºf @2:57 PM    Low: 35ºf @6:57 AM     Approx. Precipitation / Rain Total: in.
Time (PDT)Temp. (ºf)Humidity (%)Dew Point (ºf)Barometer (inHG)Wind Speed (mph)Wind DirectionWind Gust (mph)1hr. Precip / Rain Total (in.)Snow Depth
11:57 PM447436.25-2.61ene2.61--
10:57 PM466735.67---6.08--
9:57 PM486235.61-5.21wsw9.56--
8:57 PM496236.55-6.08wsw9.56--
7:57 PM516037.61-6.08wnw14.77--
6:57 PM555539.13-10.43w16.51--
5:57 PM594839.34-9.56w17.38--
4:57 PM604337.44-11.3w16.51--
3:57 PM623131.02-6.95s13.9--
2:57 PM643233.55-3.48sw11.3--
1:57 PM622727.64-4.34ssw10.43--
12:57 PM593027.61-3.48w8.69--
11:57 AM573831.65-3.48wnw9.56--
10:57 AM544231.43-1.74ssw7.82--
9:57 AM534532.23-1.74ese4.34--
8:57 AM485633.06-1.74se7.82--
7:57 AM407432.39-3.48e6.08--
6:57 AM358129.77-5.21ene6.08--
5:57 AM367528.86-3.48nne8.69--
4:57 AM367829.82-4.34ene7.82--
3:57 AM387430.46-0.87e8.69--
2:57 AM407131.37-2.61nnw13.9--
1:57 AM416530.15-6.08nne11.3--
12:57 AM416530.15-7.82nne18.25--
High: 51ºf @3:57 PM    Low: 40ºf @5:57 AM     Approx. Precipitation / Rain Total: in.
Time (PDT)Temp. (ºf)Humidity (%)Dew Point (ºf)Barometer (inHG)Wind Speed (mph)Wind DirectionWind Gust (mph)1hr. Precip / Rain Total (in.)Snow Depth
11:57 PM436130.48-17.38nnw25.2--
10:57 PM417232.68-4.34ese22.59--
9:57 PM426832.22-16.51n24.33--
8:57 PM426832.22-6.95nnw18.25--
7:57 PM446934.49-15.64nnw29.55--
6:57 PM486938.32-6.08sw19.99--
5:57 PM506237.5-14.77wsw22.59--
4:57 PM466936.41-15.64sw23.46--
3:57 PM516338.85-11.3sw15.64--
2:57 PM468942.94-0.87wsw15.64--
1:57 PM437736.29-8.69wnw25.2--
12:57 PM495533.54-11.3ssw19.99--
11:57 AM486336.01-12.17wsw16.51--
10:57 AM457838.56-8.69s16.51--
9:57 AM438639.1-9.56s15.64--
8:57 AM438438.5-8.69s13.9--
7:57 AM428838.71-6.08s12.17--
6:57 AM419339.13-7.82sse11.3--
5:57 AM408937.02-5.21ssw12.17--
4:57 AM418035.31-7.82sse13.03--
3:57 AM418436.54-6.95sse9.56--
2:57 AM428337.22-7.82sse10.43--
1:57 AM418235.93-7.82sse13.03--
12:57 AM437334.95-8.69ssw11.3--
High: 56ºf @11:57 AM    Low: 42ºf @11:57 PM     Approx. Precipitation / Rain Total: in.
Time (PDT)Temp. (ºf)Humidity (%)Dew Point (ºf)Barometer (inHG)Wind Speed (mph)Wind DirectionWind Gust (mph)1hr. Precip / Rain Total (in.)Snow Depth
11:57 PM427233.64-5.21s10.43--
10:57 PM437234.6-7.82ssw16.51--
9:57 PM437234.6-11.3ssw19.12--
8:57 PM447034.85-10.43sw17.38--
7:57 PM456935.45-11.3ssw17.38--
6:57 PM476234.66-12.17ssw24.33--
5:57 PM487540.46-14.77sw26.07--
4:57 PM536039.49-15.64sw27.81--
3:57 PM535738.18-17.38sw24.33--
2:57 PM528447.32-11.3sw23.46--
1:57 PM537244.22-17.38s24.33--
12:57 PM556643.85-16.51s23.46--
11:57 AM566745.2-15.64s23.46--
10:57 AM547144.81-11.3ssw20.86--
9:57 AM518145.38-12.17s18.25--
8:57 AM528347-12.17s17.38--
7:57 AM509548.62-2.61wsw5.21--
6:57 AM489847.46-3.48n9.56--
5:57 AM479846.46-6.95wsw9.56--
4:57 AM499447.35-1.74wnw13.03--
3:57 AM509448.34-11.3sse19.12--
2:57 AM489747.19-4.34wsw13.03--
1:57 AM489346.07-2.61sw5.21--
12:57 AM517443.01-1.74w6.08--
High: 76ºf @2:57 PM    Low: 50ºf @6:57 AM     Approx. Precipitation / Rain Total: in.
Time (PDT)Temp. (ºf)Humidity (%)Dew Point (ºf)Barometer (inHG)Wind Speed (mph)Wind DirectionWind Gust (mph)1hr. Precip / Rain Total (in.)Snow Depth
11:57 PM527443.97-5.21ese6.08--
10:57 PM536842.72-2.61nne4.34--
9:57 PM556643.85-3.48n4.34--
8:57 PM586345.47-2.61sw5.21--
7:57 PM605644.26-5.21nw8.69--
6:57 PM673437.7-6.95wsw15.64--
5:57 PM702936.27-12.17wsw19.12--
4:57 PM732837.96-12.17wsw20.86--
3:57 PM732837.96-14.77wsw22.59--
2:57 PM763243.99-10.43wsw19.12--
1:57 PM753343.93-10.43s20.86--
12:57 PM733241.39-12.17sse18.25--
11:57 AM733543.72-7.82ssw12.17--
10:57 AM704547.67-1.74wsw4.34--
9:57 AM645748.46-0.87ssw4.34--
8:57 AM606548.2---1.74--
7:57 AM546542.5-0.87ne4.34--
6:57 AM507442.04---5.21--
5:57 AM517342.65-3.48ne4.34--
4:57 AM507542.39-2.61nne5.21--
3:57 AM527443.97-1.74ne4.34--
2:57 AM537444.94-2.61ese4.34--
1:57 AM537444.94-1.74ese6.08--
12:57 AM556945.02-0.87e4.34--
High: 78ºf @3:57 PM    Low: 46ºf @3:57 AM     Approx. Precipitation / Rain Total: in.
Time (PDT)Temp. (ºf)Humidity (%)Dew Point (ºf)Barometer (inHG)Wind Speed (mph)Wind DirectionWind Gust (mph)1hr. Precip / Rain Total (in.)Snow Depth
11:57 PM567046.35---4.34--
10:57 PM576645.75-2.61se5.21--
9:57 PM596346.42-3.48ese4.34--
8:57 PM606046.07-1.74wnw6.95--
7:57 PM625344.67-6.08wnw9.56--
6:57 PM684143.41-7.82w13.03--
5:57 PM733543.72-9.56s19.12--
4:57 PM752839.67-10.43sse17.38--
3:57 PM782236.06-6.95e13.03--
2:57 PM772336.35-7.82nne19.12--
1:57 PM762436.59-8.69ne16.51--
12:57 PM752536.78-7.82ne20.86--
11:57 AM723240.52-4.34nnw9.56--
10:57 AM654140.72-2.61w5.21--
9:57 AM604940.78-2.61ssw4.34--
8:57 AM575641.46---6.08--
7:57 AM517041.56-3.48ese8.69--
6:57 AM477138.09-6.95e8.69--
5:57 AM477037.73-0.87ssw6.08--
4:57 AM476836.99-3.48n6.95--
3:57 AM467638.87-2.61wsw9.56--
2:57 AM507040.61-4.34nne7.82--
1:57 AM507341.69-4.34e6.08--
12:57 AM507542.39-1.74se6.95--
High: 71ºf @4:57 PM    Low: 45ºf @5:57 AM     Approx. Precipitation / Rain Total: in.
Time (PDT)Temp. (ºf)Humidity (%)Dew Point (ºf)Barometer (inHG)Wind Speed (mph)Wind DirectionWind Gust (mph)1hr. Precip / Rain Total (in.)Snow Depth
11:57 PM526942.15-6.08ne7.82--
10:57 PM546642.9-4.34e5.21--
9:57 PM566243.17-3.48nw14.77--
8:57 PM576043.25-10.43w21.72--
7:57 PM604739.71-14.77nw25.2--
6:57 PM625545.64-13.9wnw20.86--
5:57 PM655045.9-11.3w20.86--
4:57 PM712735.33-4.34nw14.77--
3:57 PM712735.33-8.69n16.51--
2:57 PM693137.1-6.95nne18.25--
1:57 PM683539.32-6.95n19.12--
12:57 PM654140.72-9.56n19.99--
11:57 AM614237.74-14.77nne24.33--
10:57 AM605041.3-8.69nne19.12--
9:57 AM566042.31-13.03nne20.86--
8:57 AM537143.85-6.08nne8.69--
7:57 AM497942.77-5.21n8.69--
6:57 AM459042.25-3.48n8.69--
5:57 AM459944.74-2.61n4.34--
4:57 AM469845.47-2.61n4.34--
3:57 AM479746.19---1.74--
2:57 AM479345.08-1.74ne3.48--
1:57 AM469745.2-1.74nne4.34--
12:57 AM479846.46-2.61w3.48--
High: 61ºf @1:57 PM    Low: 44ºf @6:57 AM     Approx. Precipitation / Rain Total: in.
Time (PDT)Temp. (ºf)Humidity (%)Dew Point (ºf)Barometer (inHG)Wind Speed (mph)Wind DirectionWind Gust (mph)1hr. Precip / Rain Total (in.)Snow Depth
11:57 PM479645.92---2.61--
10:57 PM479545.64-1.74nnw2.61--
9:57 PM489245.79-0.87s2.61--
8:57 PM479545.64-1.74n3.48--
7:57 PM479645.92-0.87e6.95--
6:57 PM479746.19-4.34nw12.17--
5:57 PM479445.36-6.95w19.99--
4:57 PM536441.15-13.9sw22.59--
3:57 PM595442.38-13.9sse24.33--
2:57 PM585742.85-14.77se22.59--
1:57 PM615243.25-9.56s15.64--
12:57 PM566544.4-3.48wnw9.56--
11:57 AM586245.05-3.48ssw8.69--
10:57 AM547445.9-2.61wsw6.08--
9:57 AM538247.65-0.87wnw3.48--
7:57 AM469945.73---2.61--
6:57 AM449843.47-2.61se3.48--
5:57 AM459343.1-1.74w3.48--
4:57 AM459242.82-2.61n3.48--
3:57 AM458540.77-0.87nne3.48--
2:57 AM468240.82-1.74se13.03--
1:57 AM468341.13-3.48se13.03--
12:57 AM478241.79-9.56se15.64--
High: 52ºf @3:57 PM    Low: 45ºf @8:57 AM     Approx. Precipitation / Rain Total: in.
Time (PDT)Temp. (ºf)Humidity (%)Dew Point (ºf)Barometer (inHG)Wind Speed (mph)Wind DirectionWind Gust (mph)1hr. Precip / Rain Total (in.)Snow Depth
11:57 PM468742.35-6.08se19.99--
10:57 PM468942.94-9.56ese16.51--
9:57 PM468842.65-5.21se8.69--
8:57 PM468942.94-5.21ese10.43--
7:57 PM478743.33-2.61s13.9--
6:57 PM487841.47-6.08sse16.51--
5:57 PM507442.04-10.43sse16.51--
4:57 PM498043.1-8.69sse21.72--
3:57 PM527945.69-12.17sse20.86--
2:57 PM528647.94-6.08se22.59--
1:57 PM497942.77-13.03se19.12--
12:57 PM517242.3-13.03sse20.86--
11:57 AM517242.3-11.3sse16.51--
10:57 AM498544.69-1.74ene8.69--
9:57 AM468942.94-3.48ene11.3--
8:57 AM459042.25-6.95e13.03--
7:57 AM458741.37-7.82sse25.2--
6:57 AM459944.74-9.56w19.99--
5:57 AM479746.19-6.08w14.77--
4:57 AM469845.47-4.34se14.77--
3:57 AM469745.2-6.95s15.64--
2:57 AM479445.36-10.43sse19.99--
1:57 AM469344.09-7.82sse23.46--
12:57 AM478743.33-11.3se26.07--
High: 58ºf @2:57 PM    Low: 45ºf @6:57 AM     Approx. Precipitation / Rain Total: in.
Time (PDT)Temp. (ºf)Humidity (%)Dew Point (ºf)Barometer (inHG)Wind Speed (mph)Wind DirectionWind Gust (mph)1hr. Precip / Rain Total (in.)Snow Depth
11:57 PM497742.11-14.77ese20.86--
10:57 PM498444.38-11.3se20.86--
9:57 PM507943.75-13.9sse25.2--
8:57 PM498344.06-13.03s25.2--
7:57 PM497742.11-13.03s19.99--
6:57 PM507241.33-11.3s20.86--
5:57 PM516138.03-11.3s24.33--
4:57 PM535135.36-14.77sse24.33--
3:57 PM573831.65-17.38sse26.94--
2:57 PM583631.2-15.64sse24.33--
1:57 PM574736.97-14.77s23.46--
12:57 PM575440.52-12.17s23.46--
11:57 AM565339.11-14.77sse25.2--
10:57 AM546341.69-13.03sse21.72--
9:57 AM527544.32-10.43ssw17.38--
8:57 AM488343.09-6.95ssw16.51--
7:57 AM469043.23-10.43s16.51--
6:57 AM459242.82-6.95ssw10.43--
5:57 AM459142.53-3.48sw11.3--
4:57 AM468341.13-4.34ssw14.77--
3:57 AM477539.49-8.69sse14.77--
2:57 AM488543.71-7.82ssw13.03--
1:57 AM468742.35-5.21ssw9.56--
12:57 AM487440.11-0.87n5.21--
High: 66ºf @2:57 PM    Low: 42ºf @5:57 AM     Approx. Precipitation / Rain Total: in.
Time (PDT)Temp. (ºf)Humidity (%)Dew Point (ºf)Barometer (inHG)Wind Speed (mph)Wind DirectionWind Gust (mph)1hr. Precip / Rain Total (in.)Snow Depth
11:57 PM506739.48-1.74w6.08--
10:57 PM516539.65-4.34sw5.21--
9:57 PM525837.69-3.48ssw8.69--
8:57 PM536340.75-4.34s5.21--
7:57 PM536240.33-5.21sw10.43--
6:57 PM556744.25-8.69sw15.64--
5:57 PM577047.31-8.69ssw13.03--
4:57 PM596848.45-9.56sw21.72--
3:57 PM655548.43-10.43wsw20.86--
2:57 PM665046.82-8.69ssw15.64--
1:57 PM645447.02-9.56s14.77--
12:57 PM665247.86-4.34wnw9.56--
11:57 AM645647.98-3.48sw7.82--
10:57 AM606146.51-1.74wsw6.95--
9:57 AM566945.97-1.74wsw4.34--
8:57 AM518346.02-1.74n5.21--
7:57 AM479044.22-1.74se5.21--
6:57 AM449743.2-3.48ese8.69--
5:57 AM429540.67-4.34ese5.21--
4:57 AM449743.2-3.48nne5.21--
3:57 AM449642.93-2.61se5.21--
2:57 AM469644.92-0.87s3.48--
1:57 AM469544.65-0.87sse6.08--
12:57 AM489045.21-4.34w6.95--
High: 70ºf @3:57 PM    Low: 41ºf @6:57 AM     Approx. Precipitation / Rain Total: in.
Time (PDT)Temp. (ºf)Humidity (%)Dew Point (ºf)Barometer (inHG)Wind Speed (mph)Wind DirectionWind Gust (mph)1hr. Precip / Rain Total (in.)Snow Depth
11:57 PM498444.38-3.48w5.21--
10:57 PM507843.41-1.74nw4.34--
9:57 PM537244.22-2.61wnw6.08--
8:57 PM536943.1-5.21w11.3--
7:57 PM556844.63-6.08w13.03--
6:57 PM596246-8.69wsw13.03--
5:57 PM645949.38-6.95sw16.51--
4:57 PM665147.35-8.69ssw19.12--
3:57 PM703440.33-9.56ssw18.25--
2:57 PM683539.32-12.17sse16.51--
1:57 PM693741.63-6.95s13.03--
12:57 PM664443.46-1.74w8.69--
11:57 AM644542.23-3.48w6.95--
10:57 AM615142.74-1.74wsw5.21--
9:57 AM565640.53-1.74sw4.34--
8:57 AM506337.91-0.87sw3.48--
7:57 AM447536.59-3.48ese6.08--
6:57 AM417834.68-1.74ese4.34--
5:57 AM437736.29-3.48nne5.21--
4:57 AM427634.99-1.74ne6.95--
3:57 AM447737.26-4.34e6.08--
2:57 AM447636.93-2.61ese6.95--
1:57 AM467137.13-5.21ene7.82--
12:57 AM497039.65-3.48sse6.95--
High: 65ºf @2:57 PM    Low: 43ºf @3:57 AM     Approx. Precipitation / Rain Total: in.
Time (PDT)Temp. (ºf)Humidity (%)Dew Point (ºf)Barometer (inHG)Wind Speed (mph)Wind DirectionWind Gust (mph)1hr. Precip / Rain Total (in.)Snow Depth
11:57 PM497742.11-2.61ne4.34--
10:57 PM507642.74-2.61nw7.82--
9:57 PM527443.97-1.74nw5.21--
8:57 PM556041.37-1.74sw9.56--
7:57 PM566945.97-3.48wsw12.17--
6:57 PM586445.89-6.08wsw13.03--
5:57 PM625746.59-9.56wsw16.51--
4:57 PM645647.98-8.69w15.64--
3:57 PM655045.9-10.43w18.25--
2:57 PM654844.83-12.17wsw19.99--
1:57 PM654543.14-10.43wsw16.51--
12:57 PM654341.95-5.21w13.9--
11:57 AM614338.34-12.17nw19.12--
10:57 AM595442.38-5.21ssw9.56--
9:57 AM556041.37-3.48ssw7.82--
8:57 AM517744.05-4.34ese6.08--
7:57 AM448940.97-3.48e9.56--
6:57 AM449442.39-3.48ene6.08--
5:57 AM459242.82-4.34sw7.82--
4:57 AM449241.83-0.87nnw5.21--
3:57 AM439240.84-4.34ne12.17--
2:57 AM479144.51-2.61s7.82--
1:57 AM478743.33-0.87s6.95--
12:57 AM477940.83-6.08s7.82--
High: 66ºf @1:57 PM    Low: 43ºf @4:57 AM     Approx. Precipitation / Rain Total: in.
Time (PDT)Temp. (ºf)Humidity (%)Dew Point (ºf)Barometer (inHG)Wind Speed (mph)Wind DirectionWind Gust (mph)1hr. Precip / Rain Total (in.)Snow Depth
11:57 PM516037.61-5.21ese7.82--
10:57 PM516238.44-5.21ese6.95--
9:57 PM516238.44-3.48sse7.82--
8:57 PM526239.39-1.74nnw4.34--
7:57 PM555438.66-2.61w10.43--
6:57 PM575239.55-4.34wsw9.56--
5:57 PM614539.5-4.34w13.03--
4:57 PM604840.25-7.82wsw17.38--
3:57 PM624339.25-10.43w17.38--
2:57 PM654040.09-6.95sw13.9--
1:57 PM663134.49-6.08sw17.38--
12:57 PM633534.92-8.69nnw16.51--
11:57 AM633736.32-5.21nnw10.43--
10:57 AM594738.8-4.34nnw7.82--
9:57 AM574938.03-0.87s6.08--
8:57 AM516439.26-5.21ese12.17--
7:57 AM457035.81-6.95ese9.56--
6:57 AM437334.95-6.08e7.82--
5:57 AM447034.85-0.87ese7.82--
4:57 AM436933.54-6.08e7.82--
3:57 AM466735.67-2.61wsw6.95--
2:57 AM495734.44-3.48wsw7.82--
1:57 AM476134.26-5.21nne6.95--
12:57 AM476134.26-5.21ne6.95--
High: 60ºf @11:57 AM    Low: 42ºf @4:57 AM     Approx. Precipitation / Rain Total: in.
Time (PDT)Temp. (ºf)Humidity (%)Dew Point (ºf)Barometer (inHG)Wind Speed (mph)Wind DirectionWind Gust (mph)1hr. Precip / Rain Total (in.)Snow Depth
11:57 PM476134.26-2.61s10.43--
10:57 PM485934.36-3.48ne14.77--
9:57 PM505936.24-13.03nnw19.12--
8:57 PM496035.73-5.21nw27.81--
7:57 PM505835.81-17.38nw29.55--
6:57 PM495935.3-14.77nw26.94--
5:57 PM515937.18-16.51nnw32.15--
4:57 PM536139.91-10.43nw22.59--
3:57 PM528046.02-2.61sse10.43--
2:57 PM507642.74-7.82ssw19.12--
1:57 PM546040.43-4.34n9.56--
12:57 PM555840.5-2.61wsw6.95--
11:57 AM604840.25-2.61n7.82--
10:57 AM545638.66-0.87w4.34--
9:57 AM487440.11-3.48sse4.34--
8:57 AM458239.84-3.48sse5.21--
7:57 AM428939-1.74s7.82--
6:57 AM438037.26-1.74sse7.82--
5:57 AM428939-5.21ese8.69--
4:57 AM429139.57-5.21se9.56--
3:57 AM438939.98-1.74ne4.34--
2:57 AM448840.68-3.48wnw6.95--
1:57 AM458440.46-2.61w5.21--
12:57 AM449342.11-3.48n6.08--
High: 52ºf @6:57 PM    Low: 47ºf @10:57 PM     Approx. Precipitation / Rain Total: in.
Time (PDT)Temp. (ºf)Humidity (%)Dew Point (ºf)Barometer (inHG)Wind Speed (mph)Wind DirectionWind Gust (mph)1hr. Precip / Rain Total (in.)Snow Depth
11:57 PM478442.42-4.34w6.08--
10:57 PM478241.79-5.21w8.69--
9:57 PM488142.45-6.08ssw8.69--
8:57 PM498143.43-6.08sw13.03--
7:57 PM517643.7-6.95wsw13.9--
6:57 PM526942.15-9.56ssw16.51--
Past Weather Disclaimer Note regarding "Approx. Precipitation / Rain Total"

Currently

Clear 72°F
30.01in
Barometer
44%
Humidity
North 0.0mph
Wind
Clear

Past Weather Nearby

More Local Information

Bookmark and Share